Back to catalog

STARLINK-35493

AliveCommunicationsVLEO
NORAD 65928·PAYLOAD·🇺🇸 United States

Launched Oct 8, 2025 from Vandenberg Space Force Base

Loading…

Next Passes (next 24 hours)

TLE

FreshSource: CelesTrak SupGP

Epoch: Sep 14, 2026, 21:34 UTC

1 65928C 25225U   26257.89909722  .00003093  00000+0  91402-4 0  2575
2 65928  53.1593   3.9002 0001459  73.2903  86.9273 15.34380423    14

Track STARLINK-35493 in real time with AllMySat

Download on the App Store